Dauntless Aviation
Greetings, Guest! To participate, [sign up for a free account] or [log in]
Airports North America Canada
CYLW
YLW

Kelowna International Airport

Kelowna, BC, CANADA

Airport Info
Edit

Location

Latitude / Longitude: 49°53'0"N / 119°29'35"W
  49°53.016'N / 119°29.598'W
  49.8836 / -119.4933

Nearby radio navigation aids

EX RUTLAND NDB. 335.5° 1.0nm from EX to field.
LW KELOWNA NDB. 147.1° 6.5nm from LW to field.

Runway Information

Runway 16 /34

Dimensions: 7300 x 200 ft.
Surface: ASP
 
Runway 16
Runway 34
Latitude: 49.966 49.946278
Longitude: -119.378961 -119.376461
Elevation: 1409 ft. 1409 ft.
Runway true heading: 166.6 346.6
 

Instrument Procedures

  Aerodrome Chart
  Parking Areas
  CAC: Aerodrome Chart
  CAC: Parking Areas - Apron I
  CAC: Parking Areas - Apron III

IAPs (Instrument Approach Procedures)

  CFS: KELOWNA VFR Terminal Procedures Chart
  CFS: KELOWNA VFR Terminal Procedures Chart - Night Circuit Procedure
  CFS: Aerodrome Information
  CFS: Aerodrome Information (Part 2)
  DATBO ONE ARR (DATBO.DATBO 1)
  LENUR ONE ARR (LENUR.LENUR 1)
  RNAV (GNSS) A
  NDB B (GNSS)
  ILS/DME 1 Rwy 16
  Night Circuit Procedures
  KELOWNA FIVE DEP (YLW 5.)

Departure Procedures

  Departure Procedure
Satellite photo at:
Airport distance calculator
From:
Weather Reports

METAR

CYLW

CYLW 211000Z AUTO 00000KT 9SM FEW032 BKN047 OVC060 09/08 A2975 RMK SLP079
CWUS
20.0nm S
CWUS 211000Z AUTO 29005KT 09/08 RMK AO1 SLP081 T00930077 51009
CWJV
21.6nm N
CWJV 211000Z AUTO 10006KT 09/08 RMK AO1 SLP075 T00890078 51009
CYYF
25.3nm S
CYYF 211000Z 19012G17KT 15SM SCT055 BKN120 BKN210 13/09 A2976 RMK SC3AC3CI1 SLP080 DENSITY ALT 1300FT

TAF

CYLW
TAF CYLW 210638Z 2107/2119 VRB03KT P6SM BKN200 FM211000 VRB03KT P6SM SCT200 TEMPO 2110/2116 3SM BR PROB30 2112/2116 3/4SM BR RMK FCST BASED ON AUTO OBS. NXT FCST BY 211300Z
CYYF
25.3nm S
TAF CYYF 210638Z 2107/2119 18012KT P6SM FEW050 SCT080 OVC180 TEMPO 2107/2115 BKN050 FM211500 18010KT P6SM SCT020 BKN150 TEMPO 2115/2119 BKN020 RMK NXT FCST BY 211300Z
Safelog

 

Dauntless Aviation

© 2007-2014 Dauntless Aviation, all rights reserved
Information provided via PilotNav comes from a variety of official and unofficial data sources. As errors are possible, do not use PilotNav for primary flight planning purposes. Verify any information that you receive via PilotNav with current and canonical charts and other official documents. The material in this database is subject to database copyrights held by Dauntless Aviation and may not be copied without the express permission of Dauntless Aviation - licenses for use of part of all of this data are available for purchase; enquire via the Dauntless Aviation helpdesk. A number of mechanisms and markers exist in the database to protect against and identify infringement / copyright. Automated queries against this website are stictly prohibited, and all activity is logged and analyzed.